Back to catalog

STARLINK-6364

AliveCommunicationsVLEO
NORAD 57378·PAYLOAD·🇺🇸 United States

Launched Jul 16, 2023 from Cape Canaveral Space Force Station

Loading…

Next Passes (next 24 hours)

TLE

FreshSource: CelesTrak SupGP

Epoch: Sep 14, 2026, 14:38 UTC

1 57378C 23099BC  26257.61020833 -.00040903  00000+0 -14818-2 0  2576
2 57378  43.0029 225.5322 0001509 274.0005 312.2167 15.27591321    13

Track STARLINK-6364 in real time with AllMySat

Download on the App Store